Wind_Speed
30 30 30 29 29 28 27 27 26 25 24 24 24 23 23 25 26 28 28 28 28 29 28 29 29 31 33 33 34 33 32 32 34 35 36 39 41 43 44 45 46 47 48 50 52 53 54 55 51 42 37 36 39 43 44 45 49 53 55 55 54 55 56 56 54 53 52 51 50 49 50 51 52 51 49 47 44 41 40 39 39 39 40 41 42
32 32 32 32 31 30 29 29 28 28 27 27 27 27 26 27 28 30 30 30 30 30 30 31 31 32 34 36 36 35 34 34 35 37 38 40 42 43 44 46 47 47 48 50 52 53 54 55 51 41 36 37 41 44 44 45 50 55 56 56 56 57 58 56 53 51 51 51 49 49 51 53 53 51 49 46 43 41 39 39 40 42 44 45 46
33 34 34 34 33 32 32 32 31 30 30 30 30 29 28 28 30 31 31 31 31 31 32 33 33 34 36 37 38 37 36 36 37 39 40 41 43 44 45 47 48 48 49 50 52 53 54 54 51 42 37 40 43 44 44 45 50 56 58 58 58 59 58 56 53 52 51 50 49 49 52 54 54 52 48 45 43 41 40 41 43 46 48 49 51
35 35 35 35 35 35 35 35 34 34 34 33 32 30 30 30 31 31 32 32 33 33 34 35 35 36 38 39 40 39 38 39 39 40 41 42 44 45 45 48 49 50 50 51 52 52 53 54 51 44 41 43 45 45 44 44 49 57 60 60 61 61 59 56 54 52 51 50 48 48 52 55 55 53 49 45 44 43 43 46 47 49 51 54 56
37 37 37 37 37 37 37 37 37 37 36 35 33 32 32 32 33 33 33 33 34 35 36 37 37 38 40 41 42 41 41 41 41 41 42 44 45 45 46 48 50 51 52 52 52 53 53 53 51 46 44 46 46 46 45 44 49 58 62 61 63 62 59 57 54 53 52 50 48 48 51 55 56 55 52 48 46 45 47 49 51 53 56 58 60
38 39 39 38 38 38 38 38 38 37 37 35 34 34 34 35 35 35 34 35 36 37 38 39 39 40 41 43 44 43 43 43 43 43 43 45 46 46 47 49 51 52 53 53 53 54 54 52 49 47 46 47 46 45 45 45 50 59 63 63 63 63 59 57 54 52 51 50 48 49 52 55 56 56 55 53 51 50 52 53 56 58 61 64 65
40 41 40 39 39 39 38 38 38 38 37 37 37 37 37 38 38 38 37 37 38 39 39 40 40 42 43 44 45 45 45 45 45 44 45 46 47 47 48 50 52 53 54 55 55 54 54 51 47 46 46 46 45 44 46 47 51 59 64 64 64 63 59 56 54 52 51 50 50 52 54 57 58 59 59 58 58 59 59 61 63 65 69 71 73
42 43 42 41 40 39 39 39 39 39 39 39 39 40 40 40 40 40 39 39 40 40 40 41 42 44 45 45 46 46 47 47 47 46 46 47 47 47 49 51 53 54 55 57 56 56 54 49 45 45 44 43 44 45 49 51 52 59 65 64 64 63 59 56 55 52 51 52 53 54 56 59 60 61 62 62 63 64 65 66 68 72 77 80 81
44 44 44 44 43 41 41 41 42 42 42 42 42 42 42 42 42 42 42 42 42 42 42 42 44 45 46 46 47 48 50 50 51 51 50 49 49 48 49 52 54 55 56 57 58 58 53 46 43 43 42 42 45 48 52 52 52 58 65 64 63 62 58 57 55 52 52 54 55 56 58 61 63 64 65 66 66 67 68 70 73 78 83 85 86
45 46 47 46 45 44 44 44 44 44 44 45 45 45 45 45 45 45 44 44 44 44 43 44 46 47 47 48 49 50 51 53 54 55 54 52 51 50 50 51 53 55 58 58 58 55 49 44 44 44 43 44 47 50 52 51 52 59 64 63 62 60 57 56 54 53 54 56 57 59 60 62 65 67 68 68 68 69 70 73 78 84 88 88 88
48 49 50 49 47 46 47 47 47 47 48 48 48 48 48 47 47 47 47 46 46 46 46 46 48 49 49 49 51 52 53 54 56 57 57 55 54 52 52 52 53 57 59 58 56 54 49 47 47 45 43 44 46 50 51 51 54 61 64 62 61 59 57 56 55 53 55 57 59 61 62 64 68 70 70 71 71 72 73 76 83 89 92 92 91
51 52 52 51 50 49 49 50 50 51 51 50 50 50 49 50 50 50 49 48 47 47 48 49 50 51 51 52 53 54 55 57 58 59 59 58 57 55 54 53 54 58 60 58 56 55 53 51 45 41 41 42 44 50 52 53 56 62 62 61 59 58 57 57 55 54 56 58 61 62 63 65 69 72 73 73 74 75 77 81 88 94 96 95 94
53 54 54 53 53 53 52 52 53 53 52 52 52 51 51 52 53 53 52 51 50 50 51 51 52 53 54 55 55 56 58 59 61 61 61 61 60 58 56 55 55 59 61 61 59 55 53 51 43 40 43 45 47 51 53 54 58 61 61 59 59 58 58 57 56 56 57 60 62 64 64 67 71 74 75 76 77 78 80 86 93 98 99 99 98
56 56 56 55 56 56 55 54 55 55 54 53 53 54 54 55 56 56 55 54 52 52 52 54 55 56 56 57 58 58 60 62 63 63 63 64 62 60 59 58 58 60 63 63 61 57 55 51 45 44 46 47 50 54 55 56 59 60 59 59 58 59 59 58 56 57 59 61 63 65 67 69 73 76 77 78 80 81 84 90 97 100 101 101 100
59 59 59 58 59 59 58 58 58 58 57 56 56 56 57 58 58 58 58 57 57 55 55 56 58 59 59 59 60 61 63 65 65 65 66 66 65 62 61 61 62 63 65 65 63 60 55 50 46 46 47 48 50 54 55 56 58 59 58 58 59 59 59 58 57 58 61 63 64 66 69 72 76 79 80 81 83 84 88 94 100 102 103 103 101
62 62 62 62 63 62 62 62 62 62 61 60 59 59 60 60 60 60 60 60 60 60 59 60 61 62 62 62 62 64 65 67 67 68 68 69 68 65 62 63 65 66 67 67 64 61 56 51 49 51 52 51 52 52 53 55 57 57 58 58 59 59 59 58 59 60 62 64 65 67 70 74 78 81 83 84 86 87 91 97 101 103 104 104 102
66 66 66 66 66 66 65 65 66 66 65 63 62 62 63 63 62 62 63 63 63 64 64 64 64 64 65 65 66 67 68 68 69 70 71 71 72 68 65 64 65 66 67 65 61 58 55 53 53 54 55 55 54 54 55 56 56 56 58 58 59 59 59 59 60 61 63 64 66 69 72 75 79 82 85 87 89 91 95 100 103 105 106 105 102
70 69 70 70 70 69 69 69 70 70 69 67 65 65 66 66 66 65 65 66 67 67 68 68 67 67 67 68 69 70 71 70 70 71 73 74 73 71 67 66 66 66 66 63 58 54 52 52 54 55 55 56 55 55 55 55 55 57 58 58 59 60 60 60 61 63 64 65 67 70 73 77 81 84 86 89 91 94 98 101 104 106 107 106 103
74 73 74 74 73 73 74 73 72 72 72 71 69 69 69 70 69 69 68 68 70 71 71 71 70 70 70 70 71 73 73 72 72 73 75 75 75 73 69 67 68 69 67 63 58 54 53 53 54 55 56 56 53 51 52 54 55 57 58 58 59 61 61 61 62 64 65 67 70 72 75 79 83 86 88 91 94 96 100 103 105 107 108 107 103
77 77 77 76 75 75 76 76 75 75 75 74 73 72 72 72 72 72 72 71 72 73 73 73 72 72 73 73 73 75 75 74 75 76 77 77 77 74 70 69 70 70 67 62 58 55 54 55 55 56 56 53 49 49 52 54 55 57 57 58 60 61 61 62 63 65 68 69 72 75 77 80 84 87 89 92 96 98 101 104 106 109 110 108 104
79 80 80 79 78 77 78 78 77 77 77 78 77 76 75 75 74 74 75 75 74 74 74 74 73 73 74 76 76 77 78 77 77 78 79 79 77 75 71 69 68 66 64 61 58 55 55 56 57 56 53 50 49 50 52 53 55 57 57 58 61 61 62 63 65 67 69 71 74 76 79 83 86 89 91 94 97 100 102 105 107 110 111 109 105
78 79 80 81 80 79 79 79 80 80 80 81 80 80 79 78 77 77 77 77 76 75 75 75 74 74 74 76 78 78 79 79 79 79 79 79 77 75 71 66 64 63 63 61 59 58 58 58 56 52 49 49 50 51 52 54 55 56 57 59 61 61 62 64 67 69 71 73 75 77 80 85 88 90 92 95 98 101 103 105 108 111 111 109 105
70 73 75 77 78 79 80 80 81 81 82 82 82 82 81 79 79 78 78 78 77 76 76 75 75 74 74 75 77 78 79 79 79 78 78 77 75 73 68 61 58 60 61 60 60 60 60 58 54 49 48 50 51 51 53 55 55 56 57 59 60 61 63 66 68 70 72 74 76 78 82 87 90 91 94 96 99 102 104 106 109 111 111 109 104
61 64 67 69 72 74 76 77 78 79 80 81 81 80 80 79 79 78 78 76 74 74 74 73 71 71 71 72 73 74 75 76 76 73 70 70 70 68 63 54 50 53 56 57 58 59 58 54 51 49 49 50 51 52 54 55 56 57 58 58 60 62 65 67 70 71 73 75 77 80 84 88 90 93 95 97 100 102 104 106 109 111 110 108 104
56 57 59 61 64 67 69 71 72 74 75 76 76 75 76 76 76 75 74 70 68 67 66 65 64 63 64 65 67 68 69 70 69 65 63 63 63 61 55 48 43 46 51 54 55 55 54 51 49 49 50 51 52 54 55 56 57 57 57 59 62 64 66 69 70 72 73 76 78 81 86 89 91 94 96 98 100 102 104 107 110 111 110 107 102
53 54 55 56 57 59 61 63 65 68 70 70 69 69 70 70 69 68 67 65 63 61 58 56 53 52 54 57 58 58 60 62 64 62 59 57 57 56 51 45 43 45 48 51 53 52 49 49 50 50 51 52 54 56 56 56 56 56 58 61 63 65 68 70 71 72 74 76 78 82 87 89 92 94 97 99 101 102 104 107 110 111 109 106 102
52 53 53 54 54 55 56 57 59 61 63 64 63 63 62 61 60 58 56 55 55 52 49 45 43 43 45 47 49 51 56 60 63 62 58 54 54 54 49 43 43 45 47 50 51 49 47 49 51 52 53 55 56 57 56 56 55 57 59 62 64 67 69 70 71 73 74 76 79 83 87 90 92 95 98 99 101 102 104 107 110 110 109 106 101
52 52 52 53 53 54 54 55 56 57 59 58 57 54 51 48 46 44 44 43 43 41 38 38 40 42 42 43 47 53 57 59 60 62 62 60 56 51 47 42 42 44 46 47 47 48 50 52 52 54 56 57 58 57 56 55 55 58 61 63 65 68 70 71 72 73 74 76 80 84 88 91 93 96 99 100 101 102 104 107 109 110 108 105 101
51 51 51 51 51 52 53 54 55 55 55 52 48 45 41 36 32 30 31 31 32 32 33 36 41 44 43 45 50 53 54 56 61 66 69 65 56 48 46 43 42 44 46 47 49 51 53 53 54 55 57 58 57 56 55 54 56 60 62 64 67 70 71 71 72 73 74 78 82 86 89 91 94 97 100 101 101 103 104 106 108 109 108 105 101
51 50 50 50 50 50 51 54 54 52 48 43 38 34 30 25 23 24 25 25 28 31 33 35 38 41 43 46 49 51 52 57 65 73 74 68 60 55 51 46 46 50 52 52 54 56 55 54 54 56 56 56 56 55 55 56 59 62 64 66 69 71 71 72 72 73 76 80 84 87 90 92 95 98 100 101 102 103 104 105 107 108 107 104 100
50 49 49 49 49 49 51 54 54 48 40 34 29 25 21 21 28 32 29 26 29 32 34 36 38 42 47 48 45 44 48 52 59 69 75 73 67 62 57 54 55 58 58 58 59 58 55 54 55 56 56 55 54 54 56 59 61 64 67 69 71 72 72 72 72 74 77 82 86 89 91 93 96 99 101 101 102 103 104 105 107 108 106 103 99
49 48 48 49 48 47 49 52 50 42 34 30 29 29 25 27 36 39 37 34 36 39 40 41 43 47 52 51 44 43 46 46 48 58 69 73 69 63 60 61 62 62 63 63 61 58 56 55 55 55 56 55 54 56 59 61 64 67 69 71 72 72 72 72 73 75 79 84 87 90 91 93 96 99 101 102 103 103 104 104 106 107 106 102 99
49 48 48 47 45 44 45 46 43 38 37 37 38 39 35 35 34 31 37 44 48 47 45 46 50 56 60 55 49 49 48 43 42 49 58 64 66 65 64 64 61 60 62 63 60 57 56 55 55 55 56 55 56 58 60 63 66 69 72 73 73 73 72 72 74 77 81 85 88 90 92 93 96 99 101 102 103 103 103 104 106 106 105 102 99
51 50 49 46 43 41 41 42 41 40 39 39 41 41 44 44 36 36 46 52 52 49 49 50 54 62 66 58 51 50 49 46 47 50 56 62 66 67 65 61 57 58 61 61 59 58 57 55 55 56 57 56 57 59 62 65 69 72 73 74 74 73 72 72 75 78 83 87 89 90 92 93 96 99 101 102 102 102 103 104 105 106 105 102 98
52 50 49 46 44 42 42 42 42 40 37 37 37 35 39 40 38 41 52 52 44 38 44 54 60 64 66 63 59 56 54 55 57 59 62 64 63 59 56 54 53 57 59 59 59 59 57 56 57 57 56 56 58 61 65 68 72 74 75 75 75 73 72 73 76 80 84 88 89 90 92 93 96 100 102 102 102 102 103 103 105 105 104 101 97
52 51 49 47 45 45 46 42 39 37 34 34 31 27 29 33 30 35 41 38 35 31 44 57 60 58 59 59 58 59 61 64 65 63 61 60 56 52 52 53 54 55 57 58 59 58 57 58 59 58 57 58 61 64 68 71 74 75 75 75 75 73 72 75 79 82 85 88 89 90 91 93 97 100 102 101 101 102 103 103 104 105 103 100 96
54 51 50 48 46 48 48 41 36 36 34 30 28 27 29 35 30 27 24 22 26 21 39 46 38 39 55 64 63 65 71 70 63 56 54 55 55 54 55 57 58 58 58 58 59 60 61 62 62 59 58 60 64 67 70 73 75 75 75 75 73 72 73 77 81 84 86 88 89 90 91 93 97 101 101 101 101 102 102 102 103 104 102 99 95
56 53 51 48 48 52 50 41 37 39 35 30 31 33 33 45 44 26 19 32 37 18 20 32 31 41 66 76 67 65 68 64 57 54 54 54 55 57 59 61 62 61 60 59 61 64 65 63 60 58 60 63 67 70 73 75 76 75 76 75 73 72 76 80 83 85 87 88 89 90 91 94 98 100 101 100 101 102 102 102 103 104 102 98 94
57 55 52 50 50 54 51 42 39 41 38 34 35 36 37 45 45 31 31 47 49 35 28 34 40 52 69 72 64 62 65 63 61 61 59 58 59 61 63 64 63 61 61 62 64 65 63 60 58 58 61 65 69 73 76 77 77 76 76 75 74 75 79 82 85 86 87 88 89 90 91 95 98 99 99 100 100 101 101 101 102 103 101 97 93
59 57 54 51 53 57 54 46 41 43 43 41 40 40 42 47 48 39 37 50 61 58 49 46 48 56 66 71 70 71 71 69 67 65 62 61 63 65 65 64 64 64 65 65 64 63 61 60 60 61 63 68 72 76 78 78 78 77 77 76 76 78 81 84 86 87 87 88 89 90 92 95 98 98 98 99 100 100 100 101 102 102 100 96 92
61 60 57 54 55 59 58 50 44 44 46 46 48 48 47 48 52 55 53 55 63 66 62 57 56 61 67 71 72 71 70 68 66 64 64 65 67 68 68 68 69 69 68 67 66 65 65 64 64 65 69 73 76 78 79 79 79 78 78 79 79 81 83 85 86 87 87 88 89 90 92 96 97 97 98 99 99 100 100 100 101 102 100 95 91
63 62 60 57 58 62 63 56 49 48 48 49 52 55 54 50 49 53 58 60 62 64 62 56 54 57 62 64 65 66 66 65 64 66 69 71 71 71 71 72 73 73 72 72 71 70 70 69 70 73 76 78 78 79 80 80 80 80 81 81 82 83 85 86 86 86 86 87 88 91 93 96 96 97 98 99 99 100 100 100 101 102 99 94 90
64 65 63 59 60 65 67 61 55 53 51 50 51 55 58 57 54 52 53 56 57 57 55 54 54 55 57 59 61 62 63 65 67 70 71 71 72 73 74 75 75 75 75 74 74 74 75 76 78 79 79 79 78 80 81 80 81 82 83 83 83 84 85 86 86 85 86 87 89 92 94 95 96 97 98 99 99 100 100 100 102 102 98 93 89
64 65 66 63 62 66 69 66 61 59 56 53 52 54 56 59 60 60 59 60 60 61 61 61 61 61 62 62 63 63 65 66 68 70 71 73 74 76 77 77 78 77 77 77 78 79 80 81 81 80 79 79 80 81 81 81 82 83 83 83 84 85 86 85 85 85 86 89 91 93 94 95 96 97 98 99 99 100 100 101 102 101 98 92 87
66 66 67 66 64 66 71 71 67 64 63 60 58 57 58 59 62 64 66 67 68 69 70 71 71 71 71 71 71 70 71 73 74 75 77 78 79 79 80 80 80 80 81 82 82 82 82 82 81 80 79 80 81 81 81 82 83 84 83 84 86 86 85 84 84 86 88 90 92 94 95 95 96 97 98 99 100 100 101 101 101 101 97 91 85
70 69 69 69 67 66 70 74 73 70 69 67 66 64 64 63 63 65 67 69 71 73 74 75 76 77 78 79 79 79 79 80 80 81 81 81 81 81 81 81 82 83 83 83 83 83 83 81 80 80 81 82 82 82 82 84 85 84 85 86 87 86 84 84 84 87 89 91 93 94 95 95 96 97 98 99 100 100 101 101 101 99 95 89 84
72 72 71 72 71 68 69 74 77 76 75 74 73 72 71 70 70 69 69 70 72 74 75 77 78 79 81 82 82 83 83 83 82 83 83 83 83 83 83 84 85 85 85 84 84 83 82 81 81 81 82 83 83 83 85 85 86 86 87 87 86 84 84 85 86 89 91 92 93 94 95 95 96 97 98 99 99 100 100 100 100 98 93 88 83
72 73 73 73 73 72 71 73 78 81 81 80 78 77 76 76 76 75 75 75 75 75 76 77 79 81 82 82 83 83 83 83 83 83 84 84 84 85 85 86 86 86 85 85 84 83 82 82 82 82 83 83 84 85 86 87 87 87 86 85 85 85 86 87 89 90 92 93 94 95 95 96 96 97 97 98 99 99 100 100 99 96 91 86 83
73 74 74 74 74 74 73 73 76 80 84 84 83 81 80 80 80 80 81 81 82 81 81 82 82 82 82 83 84 84 84 84 84 85 85 85 86 86 86 86 87 86 86 85 85 84 83 82 82 83 83 84 85 86 87 87 87 86 85 85 87 88 89 90 91 92 93 94 94 95 95 95 96 96 97 98 98 99 99 99 97 94 89 85 82
73 74 75 75 75 76 76 75 74 77 82 86 87 86 85 85 85 85 85 86 87 88 89 89 88 87 87 88 88 88 89 89 89 89 89 89 89 88 88 88 88 87 86 86 86 85 84 84 85 85 85 85 86 86 86 86 86 86 86 88 89 90 90 91 92 92 93 94 94 95 95 95 95 96 96 97 97 98 98 97 95 91 87 83 81
72 74 75 75 75 76 76 76 75 75 77 81 85 87 88 88 88 88 89 90 91 92 93 94 94 94 94 94 93 93 94 94 93 92 92 92 91 91 90 89 89 89 89 89 88 88 88 87 87 87 86 85 85 85 86 87 87 88 89 90 91 91 92 92 92 92 93 94 94 95 95 95 94 94 95 96 96 97 96 95 92 89 85 82 80
Wind_Direction
240 242 244 246 248 251 254 258 260 262 266 269 274 279 282 284 288 291 294 298 301 305 308 312 314 315 314 314 315 316 317 319 322 323 323 325 327 330 333 335 336 337 338 339 340 340 340 341 340 337 336 337 339 339 339 339 340 340 341 341 342 342 341 341 340 340 340 340 340 340 341 341 341 339 336 332 329 326 325 324 324 323 320 316 312
243 244 246 247 249 251 254 257 259 262 265 269 273 277 280 282 285 287 290 294 298 302 306 308 310 311 311 311 312 314 314 316 319 321 322 323 325 328 331 333 334 335 337 337 338 338 338 339 338 335 334 336 336 337 336 336 337 339 340 340 340 341 341 340 340 340 340 339 339 341 341 341 342 342 339 335 331 327 326 327 328 327 325 322 318
246 247 248 250 251 253 254 256 258 261 264 267 271 274 277 280 283 285 287 291 296 300 303 305 306 307 307 308 309 311 312 314 316 318 320 321 323 327 330 330 331 333 335 336 336 336 336 337 336 332 330 331 331 332 333 333 335 338 339 339 340 341 341 340 339 340 340 339 340 341 341 342 344 345 342 338 333 330 329 328 327 325 323 322 320
249 250 251 252 253 254 255 257 259 261 264 267 270 273 276 279 281 283 286 290 294 298 300 301 302 303 304 305 307 308 310 312 314 316 318 319 321 325 328 329 329 331 333 334 334 334 334 334 332 328 325 325 326 327 330 330 333 337 339 339 340 340 340 339 338 338 339 340 340 340 341 343 346 348 346 340 336 333 329 326 324 322 322 322 321
250 252 253 254 255 256 257 258 260 263 265 268 271 273 275 277 280 282 285 288 292 295 296 298 299 300 301 303 304 306 308 310 312 315 317 317 320 323 326 327 327 329 331 331 332 333 333 331 328 324 322 322 323 325 327 327 330 336 339 339 339 339 338 338 337 338 339 339 338 338 339 342 345 348 349 345 339 334 329 327 326 325 324 323 321
252 253 255 256 257 257 259 260 262 264 266 269 271 273 274 276 279 281 284 287 290 292 293 295 298 298 299 302 303 303 305 308 311 314 315 316 319 322 324 325 326 328 329 329 330 331 331 329 326 323 321 322 323 325 325 322 326 334 338 338 338 337 337 337 337 337 337 336 334 334 336 339 343 346 348 348 344 340 337 334 331 329 327 325 322
252 254 255 256 257 259 260 262 264 266 268 269 271 272 274 276 279 281 283 285 287 290 291 293 295 296 297 301 302 301 302 306 309 312 313 315 318 321 323 323 325 326 327 326 327 329 328 327 325 322 321 322 324 324 323 319 321 331 337 336 336 335 335 336 337 337 335 333 331 332 335 338 341 343 345 346 346 346 344 339 335 332 330 327 325
252 254 255 256 257 259 261 263 265 266 268 270 271 272 274 276 278 280 282 284 286 288 290 291 293 294 296 299 301 299 300 303 307 310 312 314 316 319 321 322 323 325 324 324 325 326 326 325 323 321 321 323 323 321 320 318 319 327 334 334 334 334 334 335 336 335 333 331 330 332 335 338 339 340 342 343 345 346 345 341 336 334 332 329 327
253 254 256 257 258 259 261 263 265 266 267 269 271 273 274 276 278 280 282 284 285 286 288 290 292 293 295 297 299 299 300 301 303 306 310 313 315 317 319 321 322 322 321 322 324 325 325 324 322 320 319 321 320 318 318 316 317 325 331 333 332 332 332 334 335 334 332 330 330 333 335 337 338 339 340 342 345 345 343 340 336 334 333 331 329
254 256 257 258 259 261 262 263 265 267 268 270 272 273 275 276 278 280 281 283 284 284 287 289 290 292 294 296 298 299 300 301 302 304 307 310 312 315 317 319 320 319 318 320 324 325 324 322 320 318 318 319 318 318 317 315 316 324 330 331 330 330 331 333 334 333 331 330 331 334 335 336 337 338 339 342 344 344 341 338 336 334 334 332 330
255 256 258 259 261 262 263 264 266 267 268 270 272 274 275 277 278 279 280 281 282 284 286 287 289 291 293 295 297 298 300 302 302 303 305 308 310 313 315 318 318 316 316 319 322 324 321 318 319 320 319 317 316 316 314 311 315 324 328 328 327 328 331 333 333 332 330 330 332 334 335 335 336 338 339 341 343 342 339 337 335 335 334 333 331
256 257 259 261 262 263 263 265 266 267 268 270 272 274 275 276 277 278 279 280 281 283 285 287 289 291 292 294 296 297 299 301 301 302 304 306 309 311 313 316 316 314 315 317 318 320 317 315 317 317 311 308 308 308 308 308 314 323 326 324 325 329 331 332 333 332 330 330 333 334 334 335 336 337 338 340 342 341 338 336 335 335 335 333 331
256 258 259 261 263 263 263 264 265 266 268 270 272 273 275 275 276 277 278 279 281 282 285 287 289 290 291 293 294 297 298 299 299 301 303 305 308 310 312 313 313 313 314 314 315 317 317 313 310 307 303 303 303 303 303 307 314 320 321 322 326 329 330 332 332 331 330 331 333 334 334 335 336 337 338 340 342 340 338 336 336 336 335 334 332
256 257 258 260 261 262 263 264 265 266 267 269 271 272 273 274 275 276 278 279 280 282 284 286 288 289 290 292 294 296 296 296 298 300 302 304 306 309 310 310 311 312 313 313 312 314 314 309 304 304 305 304 301 301 303 307 313 317 318 321 326 329 330 331 332 330 330 332 333 333 334 335 336 337 339 341 342 340 337 336 336 336 335 334 332
257 258 258 259 261 262 264 264 265 266 266 267 268 270 271 272 274 276 278 280 281 282 284 285 287 288 290 291 293 294 294 295 297 299 301 303 305 307 309 309 309 311 312 311 310 312 311 306 302 304 307 304 301 302 304 307 312 315 318 322 327 328 329 331 331 330 331 332 332 333 333 334 336 337 339 341 342 340 337 336 336 336 335 334 333
257 258 259 260 261 262 263 264 265 266 266 267 267 268 270 271 273 276 278 280 282 283 284 285 286 288 290 291 292 292 293 294 296 298 300 302 303 306 308 308 309 310 311 310 309 311 310 305 302 304 305 304 304 304 306 309 312 315 319 323 326 327 329 331 331 331 332 332 332 333 333 334 336 338 340 341 341 339 337 336 336 336 336 335 334
256 257 258 259 260 261 262 263 264 265 266 267 268 269 271 272 274 276 278 280 282 283 284 285 286 287 289 290 291 291 292 294 296 298 299 300 302 304 307 308 308 309 310 310 309 308 306 303 301 301 303 305 306 305 306 310 312 316 320 323 325 327 329 330 331 332 332 331 332 333 333 334 336 338 340 341 340 339 337 336 336 336 336 335 334
255 256 257 258 259 260 261 262 264 266 268 269 270 271 272 274 275 276 278 280 282 283 284 285 287 288 289 290 291 291 292 294 296 297 298 299 301 303 306 307 307 308 310 309 307 306 304 301 300 300 303 305 305 303 306 309 312 317 321 323 324 327 329 330 331 332 331 332 333 333 334 334 336 337 339 340 339 338 337 336 336 336 336 336 335
257 257 257 257 258 260 261 262 264 266 268 270 271 271 272 273 275 277 278 280 281 282 284 285 287 288 289 290 291 291 293 294 295 296 297 298 300 302 304 306 306 308 309 308 305 304 303 301 300 301 303 305 304 303 306 309 313 318 321 322 324 327 329 330 331 331 332 332 333 334 334 335 335 337 339 339 339 338 336 336 337 337 336 336 336
258 258 258 258 259 260 262 264 265 267 268 269 270 270 271 273 274 276 277 278 279 280 283 284 286 287 288 289 290 291 292 293 294 295 296 297 298 300 303 304 306 308 308 307 305 303 301 301 300 300 301 302 303 304 307 310 315 319 321 321 324 327 329 330 331 331 332 333 334 334 335 335 335 337 338 338 338 337 336 337 337 337 337 337 337
258 259 260 260 261 262 264 266 267 268 269 270 270 271 272 272 273 275 276 277 278 280 281 283 284 286 287 288 289 290 292 293 294 295 296 297 297 299 301 304 306 306 306 305 304 302 300 301 301 300 299 300 302 304 307 311 317 320 320 322 325 328 329 330 331 332 333 333 334 335 335 335 335 336 337 338 338 337 337 338 338 338 338 338 337
259 260 261 263 264 265 265 266 268 269 269 270 271 272 273 273 274 275 276 277 278 279 280 281 283 284 285 287 288 290 291 292 293 294 295 295 297 298 301 303 304 303 302 302 302 300 300 301 300 298 298 299 300 303 307 313 318 320 320 323 326 328 329 330 331 332 333 333 334 335 335 335 335 336 336 337 337 337 337 338 338 338 338 338 338
261 261 263 264 265 265 266 267 267 268 270 271 272 273 274 275 276 276 276 277 278 279 280 281 281 282 283 284 286 287 289 290 291 292 294 296 297 298 300 302 302 300 299 300 299 299 300 299 297 295 296 298 300 304 309 315 318 319 321 324 326 327 328 329 331 332 333 333 334 334 335 335 335 336 336 337 337 337 338 338 339 339 339 339 338
262 263 264 264 265 266 266 267 268 269 270 271 272 273 275 275 276 276 276 277 278 279 280 281 282 283 284 284 284 285 286 287 289 291 294 296 297 299 300 299 296 292 292 293 295 296 296 295 292 293 295 298 302 307 312 315 317 319 322 324 325 326 328 329 331 332 332 332 333 334 334 335 335 335 336 336 336 337 338 339 339 339 339 339 338
264 264 265 265 266 266 267 268 269 269 269 270 272 273 274 275 276 278 280 283 284 284 285 286 286 285 284 284 284 285 285 286 287 290 294 296 297 299 299 297 292 285 284 288 291 292 292 290 289 292 295 299 304 309 312 314 317 320 322 324 325 326 328 330 331 332 332 332 332 333 334 334 334 334 335 336 336 337 338 339 340 340 339 338 338
265 266 266 266 267 267 267 268 269 269 271 272 273 274 275 277 279 282 286 289 291 291 291 291 289 287 286 286 287 287 286 286 287 290 293 295 297 299 299 296 290 283 284 289 292 291 289 288 289 292 297 302 306 308 310 313 317 320 322 324 325 326 328 330 332 331 331 331 331 332 333 333 333 334 335 336 336 337 338 339 340 340 339 338 338
264 266 267 268 268 269 269 269 269 270 271 273 274 276 279 283 286 289 291 292 292 293 294 292 290 290 291 292 292 292 292 293 293 294 294 294 297 300 299 292 284 284 288 292 292 291 289 288 291 295 299 303 306 307 309 313 317 320 322 323 324 326 328 331 332 331 330 329 330 331 332 332 333 334 335 335 336 337 339 339 340 339 338 338 338
263 264 265 265 266 268 269 269 270 271 272 274 278 282 285 288 290 291 291 292 296 297 296 294 296 299 302 303 301 300 300 298 294 291 291 294 296 296 292 284 279 287 295 294 292 292 291 290 294 298 301 303 305 306 309 313 317 320 322 322 323 326 328 331 331 329 328 328 329 330 330 331 332 333 334 335 336 338 339 339 339 339 338 338 338
263 263 262 262 263 265 266 267 268 270 272 275 279 282 284 286 291 294 295 298 303 305 301 300 302 303 304 305 305 303 301 298 292 289 291 294 293 288 283 279 280 290 297 295 292 293 291 292 297 300 300 302 304 306 309 313 316 319 320 320 322 326 328 330 329 327 326 326 327 328 329 331 332 333 334 335 336 337 338 339 339 339 338 338 338
262 262 263 264 264 264 265 265 266 268 270 272 273 273 272 278 292 303 307 306 305 305 303 303 303 301 299 301 302 300 298 295 292 290 290 290 289 283 280 280 284 288 293 294 293 292 291 293 296 297 299 301 303 305 308 311 314 317 318 319 322 326 328 328 327 325 324 324 326 327 329 330 331 332 334 335 336 337 338 338 339 339 338 338 338
262 262 263 263 262 262 262 261 263 265 264 260 255 250 253 275 290 293 298 301 300 299 302 306 305 300 297 299 297 289 282 281 283 284 283 284 284 280 277 282 287 287 289 292 292 290 291 293 294 297 300 302 302 303 306 309 312 315 316 319 323 325 327 326 324 322 322 323 325 327 328 329 331 332 333 334 335 336 338 338 339 339 338 338 338
263 263 262 261 261 261 257 256 258 256 245 236 232 232 252 291 299 288 281 282 283 286 293 300 300 296 294 292 283 266 258 261 269 275 275 277 279 277 275 281 287 286 285 288 289 289 291 292 293 296 300 301 299 301 304 307 310 313 315 318 322 324 325 324 322 320 321 322 324 326 328 329 330 331 333 334 335 336 337 338 338 338 338 338 338
266 264 262 262 263 258 249 245 244 236 225 229 235 241 265 302 311 291 274 272 272 275 285 292 294 293 291 285 269 255 252 252 255 261 264 267 270 271 272 277 281 281 281 284 285 286 289 290 291 295 298 298 298 299 302 304 307 311 315 318 321 323 323 321 319 318 319 321 323 326 327 328 329 331 332 333 334 336 337 338 338 338 338 338 338
266 264 263 264 262 250 233 226 226 221 223 238 250 262 283 295 291 278 275 272 267 271 280 285 287 288 288 281 264 254 258 259 257 260 263 264 266 268 270 273 275 276 279 280 281 283 286 287 289 293 296 297 297 297 299 302 306 310 314 317 319 321 321 318 317 317 318 320 323 325 327 327 328 330 331 332 334 336 337 338 338 338 338 338 337
266 264 262 263 259 241 223 220 222 220 231 251 265 279 289 281 267 276 284 275 264 267 274 273 272 273 274 271 263 256 258 261 261 263 265 265 265 267 269 271 273 275 277 278 278 281 284 285 289 294 296 295 294 294 296 301 306 310 313 316 318 319 318 315 315 316 317 320 322 325 326 326 327 329 330 332 333 335 337 338 339 339 338 338 337
266 263 260 261 253 235 224 226 227 228 243 262 265 267 270 263 272 304 303 272 254 271 275 265 258 253 250 253 258 261 265 266 265 264 262 259 260 265 270 276 280 279 277 276 276 278 282 285 290 294 294 291 290 292 295 301 307 310 312 315 317 317 314 312 313 315 317 320 322 324 324 325 326 328 330 331 333 335 336 338 339 339 338 337 337
265 261 259 258 249 232 225 230 236 239 248 254 249 245 240 230 244 296 302 230 210 257 274 261 246 241 248 256 264 269 270 268 263 258 253 250 254 263 271 278 283 282 278 276 275 278 283 288 292 293 290 288 288 291 296 303 307 309 311 313 315 313 311 310 312 315 317 320 322 323 323 324 326 328 329 331 332 334 336 337 338 338 338 337 337
263 260 258 255 245 231 226 231 241 245 242 235 237 242 223 202 204 229 231 189 173 177 250 249 235 236 248 255 260 262 263 262 258 254 251 249 254 265 273 279 282 281 278 276 276 281 286 290 291 290 287 286 288 292 298 303 306 307 309 312 311 309 308 309 312 314 317 319 321 321 322 323 325 327 329 330 332 334 335 336 338 338 337 337 337
262 259 256 253 243 232 228 232 241 243 236 224 228 235 220 203 201 201 195 197 200 202 219 235 236 231 232 237 244 253 259 261 258 256 255 254 260 270 277 280 281 280 279 278 281 285 288 289 289 287 285 286 289 295 299 302 304 305 308 309 308 306 307 309 312 314 317 318 320 320 321 323 325 326 328 329 331 333 334 336 337 337 337 336 336
259 257 255 252 242 233 231 235 241 241 235 225 224 229 226 220 219 216 206 210 219 224 226 231 234 230 229 234 246 256 261 260 256 255 256 261 268 275 279 279 280 281 282 283 285 286 288 288 288 287 287 289 293 296 299 301 302 304 305 305 305 305 307 309 312 314 316 317 319 320 321 322 324 325 327 328 330 332 333 335 336 337 336 336 335
258 256 254 251 243 235 233 236 239 239 236 228 224 230 237 236 234 234 231 227 229 237 244 247 243 239 240 245 251 255 255 252 252 256 262 269 274 277 278 279 282 283 284 285 286 287 288 289 289 289 291 294 296 297 298 300 301 302 302 303 303 305 307 309 312 314 315 316 318 319 320 321 322 324 325 327 329 330 332 334 335 336 336 335 335
257 255 254 251 244 237 236 236 235 235 236 233 228 230 239 245 244 242 242 240 242 248 254 254 249 247 248 250 251 251 251 252 257 263 269 273 276 277 279 282 284 284 285 286 286 287 289 290 291 293 295 296 296 296 297 298 299 300 300 301 303 305 307 309 311 313 314 315 316 317 318 320 321 323 324 326 327 329 331 332 334 335 335 334 334
255 254 252 249 244 239 237 237 235 232 232 235 235 235 239 244 246 245 245 246 248 250 251 249 250 252 254 254 256 257 258 261 265 268 271 274 276 278 280 282 283 283 284 285 286 288 290 292 293 295 295 295 294 295 296 296 297 298 299 300 302 304 306 308 310 311 313 314 315 316 317 319 320 322 324 325 326 328 329 331 333 334 334 333 333
255 253 252 249 244 239 237 236 235 233 231 232 235 239 242 244 246 246 246 246 248 250 251 251 253 254 256 259 261 262 263 265 267 269 271 274 277 278 279 280 281 282 283 285 287 289 291 292 293 294 293 293 293 294 294 294 295 296 298 299 301 303 305 307 309 310 311 312 314 315 316 318 319 321 323 324 325 327 328 330 331 333 333 332 332
254 253 252 249 246 240 237 235 235 234 233 233 235 238 240 243 245 246 247 247 248 250 252 253 254 255 257 259 260 262 264 266 267 269 271 273 275 277 278 279 280 281 283 285 287 289 290 292 292 292 291 291 292 292 292 292 293 295 297 298 300 302 304 306 308 309 310 311 312 314 316 317 319 320 322 323 324 325 327 328 330 331 332 331 331
252 253 252 251 248 243 238 236 236 235 235 235 237 238 239 241 243 245 246 246 247 249 250 252 254 255 256 257 259 262 264 266 268 270 272 273 275 276 278 279 281 282 284 285 287 289 290 291 290 290 290 290 291 291 290 291 292 294 295 297 299 302 304 305 306 308 309 310 312 313 315 316 318 319 321 322 323 324 325 327 328 330 330 330 331
251 251 251 250 250 247 242 237 236 237 237 238 239 240 241 242 243 245 246 247 248 249 250 251 252 253 255 257 259 261 264 266 269 271 272 274 275 277 278 280 281 282 284 285 286 287 288 288 288 288 288 289 289 289 289 290 292 293 295 297 299 301 303 304 305 307 308 309 311 312 314 315 317 318 319 320 321 322 324 325 327 329 329 329 330
250 251 251 250 250 249 247 241 238 237 238 240 242 243 244 245 245 246 248 249 250 251 252 253 254 255 256 258 259 262 264 266 268 269 271 273 274 276 278 279 280 282 283 284 284 285 285 286 286 286 286 287 287 287 288 290 292 294 296 298 299 301 302 303 304 306 307 309 310 311 313 314 315 316 318 319 320 321 322 324 326 327 328 328 329
251 250 251 251 251 250 249 246 242 239 239 241 243 245 247 248 248 249 251 252 253 253 255 256 256 257 258 259 261 262 264 266 267 269 270 272 273 275 277 279 280 281 282 282 283 283 284 284 284 285 285 286 286 287 289 291 293 295 297 298 299 300 301 302 304 306 307 308 309 310 311 312 314 315 316 317 318 319 321 323 325 326 327 328 329
251 251 250 251 252 252 252 250 247 244 242 242 244 246 248 250 251 252 253 254 255 256 257 258 259 260 261 262 262 263 265 267 268 270 272 273 275 276 277 278 279 280 281 281 281 282 283 283 284 284 285 286 287 288 290 292 294 295 296 297 298 299 300 302 303 305 305 306 307 308 309 311 312 313 315 316 317 318 319 321 324 325 327 328 329
252 252 251 251 252 253 253 253 252 249 247 245 246 247 249 251 253 254 255 257 258 259 259 260 260 261 262 263 263 265 266 267 269 271 272 274 275 276 277 277 278 278 279 280 281 282 283 284 285 285 286 287 288 290 291 292 293 294 295 296 297 299 300 301 303 303 304 304 305 306 307 309 310 312 313 314 315 316 318 321 323 324 326 327 329
Height
10956 10956 10957 10957 10958 10958 10959 10959 10959 10960 10960 10961 10961 10961 10961 10961 10960 10960 10959 10959 10959 10958 10957 10956 10955 10953 10951 10950 10949 10948 10947 10945 10943 10941 10939 10937 10935 10933 10932 10929 10926 10924 10921 10919 10916 10913 10910 10908 10905 10903 10901 10899 10897 10896 10893 10891 10888 10886 10883 10880 10878 10876 10874 10871 10868 10865 10861 10859 10857 10855 10853 10852 10850 10847 10844 10841 10839 10836 10835 10833 10832 10830 10828 10826 10824
10952 10953 10953 10954 10954 10955 10956 10956 10956 10956 10957 10957 10958 10958 10958 10958 10958 10957 10956 10956 10956 10956 10955 10954 10952 10951 10948 10946 10945 10945 10944 10942 10941 10938 10936 10934 10932 10930 10929 10926 10923 10921 10918 10916 10913 10910 10907 10905 10902 10900 10898 10896 10894 10892 10890 10888 10886 10883 10880 10878 10875 10873 10870 10867 10865 10862 10859 10856 10854 10852 10850 10848 10846 10843 10840 10837 10835 10833 10831 10829 10827 10825 10823 10821 10818
10949 10949 10950 10950 10951 10952 10952 10952 10953 10953 10953 10954 10954 10955 10955 10955 10954 10953 10953 10953 10953 10953 10952 10951 10949 10948 10945 10943 10942 10942 10941 10940 10938 10935 10933 10931 10929 10927 10926 10923 10920 10918 10916 10913 10910 10908 10905 10903 10900 10897 10895 10893 10891 10890 10888 10886 10883 10881 10878 10875 10872 10869 10866 10863 10861 10859 10857 10854 10851 10848 10846 10844 10841 10838 10835 10832 10830 10828 10826 10824 10822 10819 10817 10814 10811
10945 10946 10946 10947 10948 10948 10948 10949 10949 10949 10950 10950 10951 10951 10952 10951 10951 10950 10950 10950 10950 10950 10949 10948 10946 10945 10942 10940 10938 10938 10937 10936 10934 10932 10930 10928 10926 10925 10923 10920 10916 10914 10912 10910 10907 10905 10903 10900 10898 10895 10893 10890 10888 10887 10885 10883 10880 10877 10874 10871 10868 10865 10861 10858 10856 10854 10852 10850 10848 10846 10844 10841 10837 10834 10830 10827 10825 10822 10820 10818 10816 10813 10811 10808 10804
10942 10942 10943 10943 10944 10944 10945 10945 10946 10946 10946 10947 10947 10948 10948 10948 10947 10947 10947 10947 10946 10946 10945 10944 10943 10941 10939 10937 10935 10934 10933 10932 10931 10929 10927 10925 10923 10922 10920 10916 10913 10911 10909 10907 10904 10902 10900 10897 10894 10892 10890 10888 10885 10883 10881 10879 10876 10874 10870 10867 10864 10861 10857 10853 10851 10848 10846 10844 10843 10842 10841 10838 10835 10831 10827 10823 10820 10818 10815 10812 10809 10807 10804 10801 10798
10938 10938 10939 10939 10940 10940 10941 10942 10942 10942 10943 10943 10944 10944 10944 10944 10944 10943 10944 10943 10943 10942 10941 10940 10939 10937 10935 10933 10932 10931 10930 10928 10928 10926 10924 10921 10920 10918 10916 10913 10910 10908 10906 10903 10901 10898 10896 10893 10891 10888 10886 10884 10881 10879 10877 10874 10872 10870 10866 10863 10860 10857 10854 10850 10846 10843 10841 10839 10837 10837 10835 10833 10831 10827 10823 10819 10816 10813 10810 10807 10803 10801 10798 10794 10789
10934 10934 10934 10935 10936 10936 10937 10938 10938 10938 10939 10939 10939 10940 10940 10940 10940 10940 10940 10939 10939 10938 10937 10937 10935 10933 10932 10930 10928 10927 10925 10924 10924 10923 10921 10918 10917 10915 10912 10909 10906 10905 10902 10900 10897 10895 10892 10890 10887 10884 10881 10879 10877 10875 10873 10871 10869 10866 10863 10860 10857 10854 10850 10847 10843 10840 10837 10835 10833 10831 10828 10826 10824 10821 10817 10814 10810 10806 10802 10798 10794 10791 10788 10783 10778
10929 10929 10930 10930 10931 10932 10933 10934 10934 10934 10934 10934 10935 10935 10936 10936 10936 10936 10936 10935 10934 10934 10933 10933 10931 10929 10928 10927 10925 10923 10922 10920 10920 10919 10918 10916 10914 10912 10909 10905 10903 10901 10898 10895 10894 10892 10889 10886 10883 10880 10877 10875 10873 10871 10870 10867 10865 10862 10860 10857 10853 10850 10846 10843 10840 10837 10833 10830 10828 10826 10822 10819 10817 10814 10811 10806 10801 10797 10794 10790 10785 10780 10775 10770 10764
10925 10924 10925 10925 10926 10928 10929 10929 10929 10929 10930 10930 10930 10930 10931 10931 10932 10932 10931 10931 10930 10929 10929 10928 10926 10925 10924 10923 10921 10919 10918 10916 10915 10914 10914 10913 10912 10910 10907 10903 10900 10897 10895 10892 10891 10888 10885 10883 10880 10877 10874 10871 10869 10868 10865 10863 10861 10859 10856 10853 10850 10846 10843 10839 10836 10832 10829 10825 10823 10820 10817 10813 10810 10807 10803 10798 10792 10788 10785 10782 10778 10773 10768 10760 10751
10920 10920 10919 10920 10922 10924 10925 10924 10925 10925 10925 10925 10925 10925 10926 10927 10927 10927 10926 10926 10925 10925 10925 10924 10922 10921 10920 10920 10918 10915 10914 10912 10910 10909 10909 10909 10908 10907 10905 10902 10898 10893 10891 10890 10888 10886 10883 10880 10877 10873 10869 10867 10865 10863 10860 10858 10857 10855 10852 10849 10846 10843 10840 10836 10832 10828 10824 10820 10817 10814 10811 10807 10803 10800 10795 10790 10785 10781 10778 10774 10771 10766 10760 10753 10742
10916 10915 10914 10915 10918 10920 10920 10919 10920 10920 10920 10920 10920 10920 10921 10921 10921 10921 10921 10921 10921 10920 10920 10919 10917 10916 10916 10915 10914 10911 10909 10907 10905 10904 10904 10904 10904 10903 10901 10899 10895 10890 10887 10886 10885 10884 10881 10878 10874 10868 10864 10862 10860 10858 10856 10854 10852 10850 10848 10846 10844 10840 10836 10832 10828 10824 10819 10815 10811 10808 10805 10801 10796 10793 10788 10783 10777 10773 10770 10766 10762 10757 10749 10743 10734
10911 10910 10909 10911 10913 10914 10914 10914 10914 10914 10914 10914 10915 10915 10916 10916 10915 10916 10916 10916 10917 10916 10915 10914 10913 10912 10912 10911 10909 10907 10905 10903 10900 10899 10899 10899 10900 10899 10897 10895 10892 10887 10884 10883 10881 10880 10878 10875 10871 10864 10860 10859 10857 10855 10853 10851 10849 10847 10844 10843 10840 10836 10832 10827 10823 10818 10814 10811 10806 10802 10799 10795 10790 10786 10781 10775 10769 10764 10760 10756 10752 10746 10738 10731 10724
10905 10905 10905 10906 10906 10907 10908 10908 10908 10908 10908 10909 10909 10910 10910 10910 10909 10909 10910 10911 10912 10912 10910 10909 10908 10907 10907 10906 10904 10903 10900 10897 10895 10894 10894 10894 10895 10895 10892 10890 10888 10883 10880 10878 10876 10875 10875 10872 10868 10862 10858 10857 10855 10851 10849 10848 10846 10844 10842 10839 10836 10832 10827 10823 10818 10813 10809 10805 10801 10797 10793 10789 10784 10779 10774 10767 10761 10755 10751 10746 10740 10734 10726 10718 10710
10898 10898 10899 10900 10899 10899 10901 10902 10901 10901 10902 10904 10904 10905 10904 10903 10903 10903 10903 10905 10906 10907 10906 10905 10903 10902 10902 10900 10900 10898 10894 10891 10890 10889 10888 10888 10889 10890 10888 10884 10882 10880 10877 10873 10870 10870 10869 10867 10863 10858 10855 10854 10851 10848 10846 10844 10842 10841 10838 10835 10831 10827 10823 10818 10812 10808 10804 10799 10795 10790 10786 10782 10777 10772 10766 10759 10753 10747 10741 10736 10730 10723 10715 10706 10697
10890 10891 10892 10893 10893 10892 10893 10894 10894 10894 10896 10898 10899 10899 10898 10897 10897 10897 10898 10898 10899 10900 10901 10900 10897 10897 10897 10896 10895 10892 10888 10885 10884 10884 10882 10881 10882 10885 10884 10879 10876 10874 10872 10867 10864 10863 10862 10860 10857 10854 10852 10851 10848 10845 10843 10841 10839 10836 10833 10830 10825 10821 10817 10812 10807 10802 10797 10793 10788 10783 10779 10775 10769 10764 10757 10750 10744 10739 10733 10727 10721 10713 10705 10695 10685
10884 10885 10885 10886 10886 10886 10886 10886 10886 10886 10888 10892 10893 10893 10892 10892 10892 10893 10893 10892 10892 10893 10894 10894 10892 10891 10891 10891 10889 10886 10882 10880 10879 10878 10876 10875 10875 10878 10879 10875 10871 10868 10865 10862 10859 10857 10855 10854 10852 10849 10847 10846 10844 10842 10839 10837 10834 10831 10828 10824 10820 10816 10811 10806 10801 10796 10791 10786 10781 10777 10772 10767 10762 10756 10749 10742 10736 10730 10725 10719 10712 10703 10695 10685 10675
10878 10878 10878 10877 10877 10878 10879 10878 10878 10878 10880 10884 10887 10887 10886 10886 10887 10888 10888 10887 10887 10886 10886 10886 10887 10886 10886 10884 10882 10879 10877 10875 10874 10873 10870 10868 10867 10869 10871 10869 10865 10863 10860 10856 10853 10851 10850 10848 10846 10843 10841 10840 10838 10835 10833 10831 10828 10825 10822 10818 10814 10810 10805 10800 10795 10790 10785 10780 10776 10771 10766 10760 10755 10748 10741 10735 10728 10722 10716 10710 10702 10693 10684 10674 10665
10870 10871 10871 10869 10869 10870 10871 10871 10871 10872 10874 10878 10881 10881 10880 10880 10880 10881 10882 10882 10880 10879 10878 10878 10879 10880 10879 10878 10876 10873 10871 10871 10870 10867 10864 10861 10860 10862 10862 10860 10856 10855 10853 10849 10846 10844 10843 10842 10839 10837 10836 10835 10832 10830 10828 10825 10823 10819 10815 10811 10808 10803 10799 10794 10788 10784 10779 10775 10770 10765 10759 10754 10747 10741 10734 10727 10721 10714 10708 10701 10692 10683 10673 10663 10654
10861 10862 10862 10861 10862 10863 10863 10864 10866 10867 10868 10870 10873 10874 10873 10873 10873 10875 10876 10876 10873 10871 10871 10871 10872 10872 10872 10871 10869 10866 10865 10865 10864 10861 10858 10855 10853 10855 10855 10850 10846 10846 10845 10841 10838 10837 10836 10835 10834 10832 10831 10828 10826 10824 10822 10820 10817 10814 10809 10805 10801 10797 10792 10787 10782 10777 10773 10768 10763 10758 10752 10746 10740 10733 10727 10720 10714 10707 10700 10692 10683 10673 10663 10653 10643
10849 10850 10851 10853 10856 10856 10856 10858 10860 10861 10861 10862 10863 10865 10866 10867 10867 10867 10867 10867 10867 10866 10865 10865 10865 10864 10864 10863 10861 10859 10858 10858 10857 10854 10853 10850 10847 10848 10849 10845 10839 10837 10835 10833 10831 10831 10830 10829 10828 10827 10826 10823 10820 10818 10816 10814 10811 10808 10803 10799 10794 10790 10785 10780 10775 10771 10766 10761 10756 10751 10745 10739 10733 10726 10719 10713 10706 10699 10691 10683 10673 10662 10652 10642 10633
10839 10840 10842 10845 10848 10850 10851 10852 10852 10853 10853 10852 10853 10855 10858 10859 10859 10859 10859 10859 10860 10860 10860 10859 10860 10859 10857 10855 10853 10851 10850 10850 10849 10847 10845 10843 10841 10840 10842 10840 10835 10830 10826 10824 10825 10825 10824 10823 10822 10821 10819 10817 10815 10813 10811 10808 10805 10802 10797 10792 10787 10782 10778 10773 10769 10764 10759 10754 10749 10743 10738 10732 10725 10719 10713 10706 10699 10691 10683 10673 10663 10653 10642 10632 10624
10833 10834 10835 10837 10841 10843 10844 10844 10844 10844 10844 10843 10844 10846 10848 10850 10851 10852 10852 10851 10852 10853 10853 10853 10854 10853 10852 10849 10846 10843 10842 10841 10840 10838 10836 10836 10835 10835 10836 10835 10830 10823 10820 10817 10816 10817 10817 10816 10815 10814 10813 10812 10810 10808 10805 10802 10799 10796 10791 10786 10781 10776 10771 10767 10762 10757 10752 10747 10742 10737 10731 10725 10719 10713 10706 10699 10692 10684 10675 10665 10655 10644 10634 10624 10616
10828 10829 10830 10831 10832 10834 10835 10835 10835 10835 10835 10835 10835 10836 10838 10840 10842 10842 10842 10843 10843 10844 10844 10844 10845 10846 10845 10843 10840 10836 10834 10833 10831 10829 10827 10827 10828 10828 10830 10832 10826 10818 10813 10811 10810 10809 10810 10809 10808 10809 10808 10806 10804 10801 10798 10795 10792 10789 10785 10779 10774 10770 10765 10761 10756 10751 10746 10741 10736 10730 10725 10718 10712 10706 10699 10692 10685 10677 10667 10658 10647 10637 10627 10617 10609
10822 10824 10824 10824 10825 10825 10826 10826 10826 10827 10826 10826 10827 10828 10829 10829 10830 10830 10831 10833 10835 10835 10835 10835 10837 10837 10836 10834 10832 10830 10828 10825 10822 10820 10819 10820 10821 10821 10822 10826 10826 10819 10812 10809 10807 10806 10806 10805 10804 10804 10803 10801 10798 10795 10792 10789 10785 10782 10778 10773 10769 10765 10760 10755 10750 10745 10740 10735 10730 10724 10718 10712 10706 10699 10693 10686 10678 10670 10660 10651 10641 10631 10621 10611 10604
10818 10819 10819 10818 10818 10818 10817 10818 10818 10818 10818 10818 10819 10821 10820 10820 10819 10819 10820 10822 10824 10826 10826 10827 10827 10827 10826 10824 10823 10822 10821 10817 10813 10812 10812 10812 10814 10813 10813 10816 10819 10816 10810 10806 10805 10804 10803 10801 10800 10799 10798 10795 10792 10789 10786 10783 10779 10775 10770 10766 10762 10758 10754 10749 10744 10739 10734 10729 10724 10718 10712 10706 10700 10694 10687 10680 10672 10663 10654 10644 10634 10625 10616 10607 10599
10813 10813 10812 10812 10812 10811 10812 10812 10811 10810 10810 10810 10812 10813 10813 10813 10813 10814 10814 10814 10813 10814 10817 10817 10816 10816 10816 10816 10815 10814 10812 10808 10805 10804 10806 10806 10806 10806 10806 10807 10807 10805 10802 10800 10799 10799 10799 10797 10796 10794 10792 10789 10786 10783 10781 10777 10773 10768 10764 10760 10756 10752 10748 10743 10738 10733 10728 10724 10719 10713 10708 10702 10696 10689 10682 10675 10667 10658 10648 10637 10628 10619 10611 10602 10593
10806 10806 10806 10805 10805 10805 10805 10805 10805 10804 10804 10804 10805 10807 10808 10808 10809 10809 10809 10807 10805 10806 10808 10808 10806 10807 10810 10810 10807 10805 10803 10800 10798 10797 10798 10799 10800 10800 10799 10798 10798 10796 10795 10793 10793 10793 10793 10791 10790 10788 10786 10783 10780 10778 10775 10771 10766 10762 10758 10754 10750 10746 10742 10737 10732 10728 10723 10719 10714 10709 10703 10697 10691 10684 10677 10669 10661 10652 10642 10632 10623 10614 10605 10596 10588
10799 10799 10799 10799 10799 10798 10799 10799 10798 10798 10798 10798 10800 10802 10803 10803 10803 10802 10803 10802 10800 10800 10802 10801 10800 10801 10803 10804 10802 10799 10797 10795 10792 10789 10789 10792 10795 10794 10792 10790 10789 10790 10789 10787 10787 10787 10786 10784 10783 10781 10778 10776 10774 10771 10768 10764 10760 10756 10752 10748 10745 10741 10736 10732 10727 10723 10718 10714 10709 10704 10698 10692 10686 10679 10672 10664 10656 10646 10637 10628 10619 10609 10600 10591 10583
10792 10792 10792 10793 10793 10793 10793 10793 10792 10792 10793 10794 10796 10796 10797 10796 10796 10796 10797 10796 10796 10796 10796 10797 10796 10795 10797 10798 10796 10793 10790 10787 10782 10778 10779 10785 10789 10787 10784 10783 10784 10783 10783 10782 10781 10780 10779 10777 10777 10775 10772 10770 10767 10764 10761 10757 10754 10750 10747 10743 10739 10735 10730 10726 10722 10718 10713 10709 10704 10699 10693 10687 10680 10673 10666 10658 10650 10642 10633 10624 10615 10605 10595 10587 10578
10785 10785 10785 10786 10786 10787 10786 10786 10786 10787 10788 10789 10790 10790 10790 10789 10790 10790 10790 10791 10791 10792 10792 10793 10792 10791 10791 10791 10788 10786 10786 10783 10778 10773 10773 10778 10783 10780 10777 10778 10778 10777 10776 10776 10775 10773 10772 10771 10770 10768 10765 10763 10760 10757 10754 10751 10747 10745 10741 10737 10733 10729 10724 10720 10717 10713 10708 10703 10698 10693 10687 10681 10674 10667 10660 10652 10645 10637 10629 10620 10610 10600 10591 10583 10574
10779 10779 10779 10779 10780 10780 10779 10778 10779 10781 10782 10782 10782 10781 10781 10782 10782 10783 10785 10786 10786 10785 10785 10786 10785 10783 10782 10783 10783 10786 10791 10792 10788 10781 10775 10774 10776 10775 10772 10771 10772 10771 10770 10769 10768 10766 10764 10764 10763 10760 10757 10755 10753 10750 10747 10744 10742 10739 10735 10731 10727 10723 10718 10715 10711 10707 10702 10697 10692 10687 10681 10675 10668 10661 10654 10647 10640 10632 10624 10615 10605 10596 10587 10579 10571
10772 10772 10772 10772 10773 10773 10772 10771 10772 10774 10774 10773 10771 10770 10771 10772 10773 10775 10778 10779 10778 10778 10779 10778 10775 10772 10773 10776 10779 10783 10787 10792 10792 10787 10779 10773 10772 10770 10768 10766 10765 10764 10764 10764 10762 10759 10757 10756 10755 10753 10750 10749 10747 10744 10741 10738 10736 10733 10729 10725 10721 10717 10713 10709 10705 10701 10696 10691 10686 10681 10675 10668 10662 10655 10649 10642 10634 10627 10618 10610 10601 10592 10583 10574 10566
10764 10764 10764 10765 10766 10766 10764 10764 10765 10766 10766 10763 10761 10761 10762 10761 10759 10763 10767 10769 10770 10773 10773 10770 10767 10764 10766 10770 10772 10773 10776 10782 10785 10783 10777 10772 10768 10765 10763 10762 10759 10758 10759 10759 10756 10753 10751 10749 10748 10746 10745 10743 10741 10738 10735 10732 10730 10727 10723 10719 10715 10711 10707 10703 10699 10695 10690 10685 10680 10675 10668 10662 10656 10650 10643 10637 10629 10621 10613 10605 10596 10587 10578 10569 10561
10756 10757 10757 10758 10759 10759 10757 10756 10757 10758 10758 10757 10756 10757 10756 10752 10752 10758 10760 10759 10762 10766 10767 10766 10765 10763 10764 10768 10768 10767 10768 10770 10772 10773 10770 10766 10762 10759 10759 10758 10755 10753 10754 10753 10751 10748 10745 10743 10742 10741 10739 10737 10735 10732 10729 10726 10724 10721 10717 10713 10709 10705 10701 10698 10693 10689 10684 10679 10674 10669 10663 10657 10651 10645 10638 10631 10624 10616 10609 10600 10591 10582 10573 10565 10557
10749 10750 10751 10752 10752 10752 10750 10749 10749 10751 10752 10753 10753 10755 10752 10747 10749 10752 10749 10748 10756 10763 10764 10764 10764 10761 10762 10764 10763 10761 10761 10761 10762 10763 10763 10760 10757 10756 10756 10754 10751 10748 10747 10746 10745 10743 10740 10738 10737 10735 10732 10731 10728 10725 10723 10720 10718 10714 10711 10707 10703 10699 10696 10692 10688 10683 10678 10673 10668 10662 10657 10651 10645 10639 10633 10626 10619 10611 10603 10595 10587 10578 10569 10562 10554
10742 10743 10743 10744 10745 10745 10743 10743 10743 10745 10748 10748 10748 10749 10746 10740 10742 10743 10735 10736 10751 10758 10751 10748 10750 10751 10751 10754 10756 10756 10755 10752 10752 10754 10753 10753 10752 10752 10750 10748 10746 10743 10741 10739 10739 10737 10734 10732 10731 10728 10726 10725 10722 10719 10717 10714 10711 10708 10704 10700 10697 10693 10690 10686 10682 10677 10672 10667 10661 10656 10651 10645 10640 10634 10627 10620 10613 10605 10598 10591 10583 10575 10567 10559 10552
10734 10735 10736 10736 10738 10738 10737 10738 10738 10740 10744 10744 10742 10742 10738 10733 10738 10743 10740 10740 10749 10749 10739 10735 10739 10743 10745 10748 10750 10750 10747 10743 10744 10746 10745 10746 10746 10744 10743 10742 10739 10736 10735 10734 10732 10731 10728 10725 10724 10722 10721 10719 10716 10712 10710 10708 10705 10702 10698 10694 10691 10687 10684 10680 10676 10671 10666 10660 10655 10650 10645 10639 10633 10627 10621 10614 10607 10600 10593 10587 10579 10572 10564 10556 10549
10725 10727 10728 10728 10730 10731 10732 10733 10733 10735 10738 10738 10736 10735 10732 10727 10728 10737 10743 10744 10742 10738 10737 10741 10744 10749 10753 10749 10741 10736 10736 10736 10737 10738 10737 10738 10738 10736 10735 10734 10730 10728 10728 10728 10726 10724 10721 10719 10718 10716 10715 10712 10708 10705 10703 10701 10698 10695 10692 10688 10684 10681 10677 10673 10669 10664 10659 10654 10649 10644 10639 10633 10627 10620 10614 10608 10602 10595 10589 10583 10575 10568 10561 10554 10546
10717 10719 10720 10721 10723 10724 10725 10727 10727 10729 10732 10732 10729 10729 10730 10726 10724 10726 10733 10736 10731 10726 10731 10738 10742 10746 10748 10739 10727 10725 10729 10731 10731 10730 10729 10730 10729 10728 10727 10725 10722 10720 10721 10720 10718 10716 10714 10713 10712 10710 10708 10704 10701 10698 10696 10694 10691 10689 10685 10681 10678 10675 10670 10666 10662 10657 10652 10647 10642 10637 10632 10626 10620 10614 10609 10603 10597 10591 10585 10579 10572 10565 10558 10551 10544
10708 10710 10712 10714 10715 10716 10718 10720 10721 10723 10725 10726 10724 10724 10724 10725 10722 10720 10722 10726 10723 10719 10721 10727 10730 10732 10732 10726 10722 10723 10724 10723 10722 10722 10721 10721 10720 10719 10717 10716 10713 10712 10712 10712 10711 10709 10707 10706 10705 10703 10700 10697 10694 10691 10689 10686 10684 10682 10678 10674 10671 10667 10663 10659 10655 10650 10645 10640 10635 10630 10625 10619 10614 10609 10604 10598 10593 10587 10582 10576 10569 10562 10555 10548 10541
10700 10701 10704 10706 10707 10708 10711 10713 10714 10716 10718 10719 10719 10718 10718 10719 10719 10717 10716 10718 10717 10715 10715 10718 10720 10719 10718 10717 10716 10716 10715 10714 10715 10714 10712 10712 10711 10709 10708 10707 10705 10705 10705 10704 10703 10702 10700 10699 10697 10695 10692 10690 10687 10684 10681 10679 10677 10674 10670 10666 10663 10660 10656 10652 10648 10642 10637 10633 10628 10624 10619 10614 10609 10604 10599 10594 10588 10582 10577 10572 10565 10559 10552 10544 10538
10692 10693 10695 10698 10699 10700 10702 10705 10707 10709 10711 10712 10712 10711 10710 10711 10713 10713 10711 10711 10711 10711 10710 10710 10711 10711 10710 10710 10710 10709 10708 10708 10707 10705 10703 10703 10701 10699 10699 10699 10698 10698 10697 10696 10695 10694 10693 10691 10689 10687 10685 10682 10679 10676 10673 10671 10669 10666 10663 10659 10656 10652 10649 10645 10640 10635 10630 10626 10622 10618 10613 10609 10604 10599 10594 10588 10583 10577 10572 10567 10561 10555 10548 10541 10535
10683 10684 10686 10689 10691 10692 10693 10697 10700 10701 10702 10704 10705 10704 10703 10703 10704 10706 10706 10704 10704 10703 10703 10703 10703 10703 10703 10703 10703 10702 10701 10699 10697 10695 10694 10693 10692 10691 10691 10691 10691 10691 10689 10687 10687 10686 10684 10683 10682 10680 10678 10674 10671 10668 10666 10664 10662 10659 10656 10652 10649 10645 10642 10638 10633 10628 10624 10620 10616 10612 10608 10603 10598 10593 10588 10583 10578 10572 10567 10562 10556 10550 10544 10538 10532
10673 10675 10676 10679 10682 10683 10685 10688 10691 10693 10694 10695 10697 10698 10698 10696 10695 10696 10696 10696 10695 10694 10694 10693 10693 10692 10691 10691 10690 10689 10688 10687 10685 10685 10684 10684 10683 10684 10684 10684 10684 10683 10681 10680 10679 10678 10677 10676 10675 10673 10670 10666 10663 10660 10658 10656 10654 10651 10649 10645 10641 10638 10635 10631 10626 10621 10617 10613 10609 10605 10601 10596 10591 10587 10582 10577 10572 10567 10562 10557 10552 10546 10540 10535 10528
10663 10664 10666 10669 10672 10674 10677 10679 10681 10684 10685 10686 10688 10690 10691 10690 10688 10687 10686 10685 10684 10683 10682 10681 10680 10680 10680 10679 10678 10677 10676 10675 10675 10675 10676 10677 10677 10677 10677 10676 10676 10674 10673 10672 10671 10670 10670 10669 10666 10664 10661 10657 10654 10652 10651 10648 10646 10644 10641 10638 10634 10631 10627 10623 10618 10614 10610 10606 10602 10598 10594 10589 10585 10580 10576 10571 10566 10561 10557 10552 10547 10542 10536 10530 10525
10653 10654 10656 10659 10662 10665 10667 10669 10671 10673 10675 10677 10678 10679 10680 10681 10682 10681 10680 10679 10677 10675 10674 10673 10672 10671 10671 10670 10669 10669 10668 10668 10667 10668 10668 10668 10669 10668 10668 10667 10666 10666 10665 10664 10663 10662 10661 10659 10657 10655 10652 10648 10646 10645 10642 10640 10638 10637 10634 10630 10626 10623 10619 10615 10611 10607 10603 10599 10595 10590 10586 10582 10577 10573 10569 10564 10560 10555 10551 10547 10542 10537 10531 10525 10520
10643 10643 10645 10647 10651 10654 10657 10659 10661 10663 10665 10666 10667 10668 10670 10671 10672 10672 10673 10672 10671 10669 10668 10667 10666 10664 10663 10663 10662 10662 10661 10661 10661 10660 10660 10659 10659 10659 10659 10658 10657 10657 10656 10655 10654 10653 10652 10650 10648 10646 10643 10640 10639 10636 10633 10631 10630 10629 10626 10622 10618 10614 10611 10607 10603 10600 10595 10591 10587 10583 10579 10575 10571 10567 10563 10559 10554 10550 10546 10542 10537 10532 10526 10520 10515
10633 10634 10635 10637 10640 10643 10646 10648 10649 10652 10654 10655 10655 10657 10659 10659 10660 10661 10662 10661 10660 10660 10659 10658 10656 10656 10655 10655 10654 10654 10653 10653 10652 10651 10651 10651 10650 10650 10650 10649 10649 10648 10647 10646 10645 10644 10642 10641 10639 10637 10634 10632 10630 10626 10624 10623 10622 10620 10617 10613 10609 10605 10602 10599 10595 10592 10587 10583 10579 10575 10572 10568 10564 10560 10557 10553 10548 10544 10540 10536 10532 10527 10521 10515 10509
10623 10624 10625 10627 10628 10631 10633 10635 10637 10640 10642 10643 10644 10646 10647 10647 10647 10648 10648 10646 10646 10646 10645 10643 10643 10644 10644 10644 10643 10643 10643 10642 10642 10641 10642 10642 10642 10642 10642 10641 10639 10638 10637 10636 10634 10634 10633 10631 10629 10627 10625 10624 10621 10617 10615 10613 10611 10609 10607 10603 10600 10597 10594 10590 10587 10584 10580 10575 10571 10568 10564 10561 10558 10554 10550 10546 10542 10538 10534 10530 10526 10521 10516 10509 10504
10613 10615 10616 10617 10618 10619 10620 10622 10625 10628 10630 10632 10634 10635 10635 10634 10635 10635 10634 10631 10631 10632 10630 10629 10630 10632 10631 10630 10631 10632 10631 10631 10632 10632 10633 10633 10633 10632 10632 10630 10629 10628 10626 10625 10624 10623 10622 10621 10619 10618 10617 10615 10612 10608 10606 10603 10601 10598 10596 10592 10590 10587 10584 10581 10579 10576 10572 10568 10564 10560 10557 10554 10551 10547 10543 10540 10536 10532 10528 10524 10520 10516 10510 10504 10498
10603 10605 10606 10607 10608 10608 10609 10611 10613 10615 10618 10621 10623 10623 10623 10622 10622 10622 10621 10620 10620 10619 10617 10616 10617 10617 10616 10617 10619 10620 10620 10621 10622 10623 10623 10622 10622 10621 10620 10619 10618 10616 10615 10613 10613 10612 10611 10610 10608 10607 10606 10604 10602 10599 10596 10593 10590 10588 10585 10582 10580 10577 10574 10572 10569 10566 10563 10560 10557 10553 10549 10546 10543 10540 10536 10533 10529 10526 10522 10518 10514 10510 10505 10499 10493